Location: Bemmer
(51.5498°N, 5.6249°E)
Time: 11:52:26
(UTC+00:00)

USA 281 - Pass Details

Date: 03 March 2021
Orbit: 1076 x 1083 km, 106.0° (Epoch: 15 April)

Event Time Altitude Azimuth Distance (km) Brightness Sun altitude
Exits shadow 21:34:26 48° 351° (N) 1,390 3.9 -37.0°
Drops below altitude 10° 21:39:03 10° 336° (NNW) 2,928 6.2 -37.5°
Sets 21:41:34 0° 334° (NNW) 3,888 7.0 -37.8°
